N7BDR Weather Reports


time (UTC)temp
C
wind
direction
speed
KPH
gust
KPH
rain 1hr
cm
rain 24hr
cm
rain mn
cm
humidity
%
barometer
mb
20260505101342 13 222 0.0 1.6 0.00 0.00 0.00 63 1002.2
20260505100834 13 277 0.0 0.0 0.00 0.00 0.00 62 1002.2
20260505100320 13 263 0.0 4.8 0.00 0.00 0.00 62 1002.2
20260505095815 13 278 0.0 0.0 0.00 0.00 0.00 63 1002.2
20260505095310 13 268 0.0 4.8 0.00 0.00 0.00 62 1002.2
20260505094149 13 272 0.0 8.0 0.00 0.00 0.00 61 1002.2
20260505093636 13 266 0.0 8.0 0.00 0.00 0.00 62 1002.2
20260505093138 13 263 0.0 6.4 0.00 0.00 0.00 62 1002.2
20260505092625 13 256 0.0 6.4 0.00 0.00 0.00 63 1002.1
20260505092115 13 258 0.0 3.2 0.00 0.00 0.00 64 1002.1
20260505091618 13 271 0.0 1.6 0.00 0.00 0.00 65 1002.1
20260505091116 13 260 0.0 0.0 0.00 0.00 0.00 64 1002.1
20260505090604 13 258 1.6 6.4 0.00 0.00 0.00 64 1002.2
20260505085437 13 256 1.6 11.3 0.00 0.00 0.00 64 1002.2
20260505084936 13 239 3.2 11.3 0.00 0.00 0.00 64 1002.2
20260505084435 13 247 3.2 11.3 0.00 0.00 0.00 63 1002.2
20260505083250 13 227 3.2 14.5 0.00 0.00 0.00 64 1002.3
20260505082751 13 257 3.2 14.5 0.00 0.00 0.00 63 1002.4
20260505082258 13 255 4.8 24.1 0.00 0.00 0.00 62 1002.3
20260505081744 13 281 6.4 24.1 0.00 0.00 0.00 62 1002.4
20260505080615 13 209 4.8 19.3 0.00 0.00 0.00 64 1002.5
20260505080057 13 270 6.4 22.5 0.00 0.00 0.00 64 1002.4
20260505075607 13 210 8.0 22.5 0.00 0.00 0.00 62 1002.5
20260505073748 14 167 8.0 25.7 0.00 0.00 0.00 54 1002.5
20260505073254 14 242 8.0 24.1 0.00 0.00 0.00 54 1002.6
20260505072755 14 175 6.4 22.5 0.00 0.00 0.00 53 1002.4
20260505072257 14 251 4.8 17.7 0.00 0.00 0.00 52 1002.4
20260505071737 14 253 6.4 25.7 0.00 0.00 0.00 51 1002.2
20260505071229 14 139 9.7 25.7 0.00 0.00 0.00 51 1002.2
20260505070116 14 288 11.3 25.7 0.00 0.00 0.00 53 1001.9
20260505065603 14 174 9.7 33.8 0.00 0.00 0.00 53 1002.0
20260505065059 14 204 11.3 33.8 0.00 0.00 0.00 53 1001.9
20260505064607 14 205 11.3 33.8 0.00 0.00 0.00 54 1001.8
20260505064116 14 216 11.3 33.8 0.00 0.00 0.00 54 1001.7
20260505063606 14 168 9.7 33.8 0.00 0.00 0.00 55 1001.8
20260505063107 14 197 12.9 33.8 0.00 0.00 0.00 54 1001.7
20260505062604 15 193 12.9 35.4 0.00 0.00 0.00 53 1001.7
20260505062056 14 199 11.3 35.4 0.00 0.00 0.00 53 1001.7
20260505060915 14 101 11.3 41.8 0.00 0.00 0.00 54 1001.7
20260505055743 15 213 14.5 41.8 0.00 0.00 0.00 54 1001.7
20260505055246 15 266 14.5 30.6 0.00 0.00 0.00 54 1001.8
20260505054749 15 234 12.9 30.6 0.00 0.00 0.00 54 1001.7
20260505054237 15 173 12.9 30.6 0.00 0.00 0.00 54 1001.8
20260505053719 15 178 12.9 30.6 0.00 0.00 0.00 54 1001.8
20260505053221 15 163 12.9 30.6 0.00 0.00 0.00 54 1001.8
20260505052730 15 179 14.5 45.1 0.00 0.00 0.00 54 1001.7
20260505051556 16 266 14.5 45.1 0.00 0.00 0.00 52 1001.7
20260505051105 16 171 12.9 45.1 0.00 0.00 0.00 51 1001.6
20260505050603 16 213 9.7 35.4 0.00 0.00 0.00 50 1001.6
20260505041411 17 181 6.4 22.5 0.00 0.00 0.00 39 1000.9
20260505040857 17 261 6.4 17.7 0.00 0.00 0.00 39 1000.8
20260505040406 17 223 6.4 17.7 0.00 0.00 0.00 40 1000.6
20260505035851 17 162 6.4 17.7 0.00 0.00 0.00 40 1000.6
20260505034108 17 275 6.4 17.7 0.00 0.00 0.00 41 1000.2
20260505033605 17 246 6.4 17.7 0.00 0.00 0.00 41 1000.2
20260505033109 17 260 6.4 17.7 0.00 0.00 0.00 41 1000.2
20260505032604 17 265 4.8 17.7 0.00 0.00 0.00 40 1000.3
20260505032054 18 277 3.2 12.9 0.00 0.00 0.00 40 1000.4
20260505030918 18 239 3.2 16.1 0.00 0.00 0.00 39 1000.2
20260505030418 18 271 4.8 19.3 0.00 0.00 0.00 39 1000.2
20260505025253 18 173 8.0 19.3 0.00 0.00 0.00 38 1000.0
20260505024758 18 208 6.4 19.3 0.00 0.00 0.00 37 999.9
20260505024257 18 232 4.8 19.3 0.00 0.00 0.00 36 999.8
20260505023116 18 229 6.4 17.7 0.00 0.00 0.00 36 999.6
20260505022559 18 140 6.4 17.7 0.00 0.00 0.00 36 999.6
20260505022102 19 180 6.4 17.7 0.00 0.00 0.00 36 999.6
20260505020948 19 309 1.6 16.1 0.00 0.00 0.00 35 999.5
20260505020447 19 227 0.0 3.2 0.00 0.00 0.00 34 999.3
20260505015340 20 253 0.0 0.0 0.00 0.00 0.00 34 999.3
20260505014823 20 255 0.0 0.0 0.00 0.00 0.00 34 999.3
20260505013646 20 265 0.0 0.0 0.00 0.00 0.00 33 999.5
20260505013139 20 270 0.0 0.0 0.00 0.00 0.00 33 999.5
20260505012630 20 261 0.0 0.0 0.00 0.00 0.00 33 999.5
20260505012128 20 274 0.0 0.0 0.00 0.00 0.00 33 999.5
20260505011009 20 275 0.0 0.0 0.00 0.00 0.00 33 999.6
20260505010451 20 119 0.0 6.4 0.00 0.00 0.00 32 999.7
20260505005959 20 306 0.0 3.2 0.00 0.00 0.00 32 999.8
20260505004227 20 327 1.6 9.7 0.00 0.00 0.00 32 999.8
20260505003735 20 83 3.2 9.7 0.00 0.00 0.00 32 999.8
20260505003227 20 96 1.6 8.0 0.00 0.00 0.00 31 999.9
20260505002714 20 60 1.6 12.9 0.00 0.00 0.00 32 999.9
20260505001546 20 141 4.8 14.5 0.00 0.00 0.00 33 1000.0
20260504235824 20 114 3.2 12.9 0.00 0.00 0.00 35 1000.2
20260504234702 20 64 4.8 14.5 0.00 0.00 0.00 34 1000.4
20260504234207 20 159 4.8 14.5 0.00 0.00 0.00 34 1000.4
20260504233656 21 83 3.2 14.5 0.00 0.00 0.00 33 1000.4
20260504233156 21 61 1.6 12.9 0.00 0.00 0.00 32 1000.5
20260504232639 21 121 1.6 12.9 0.00 0.00 0.00 32 1000.4
20260504232142 22 114 1.6 9.7 0.00 0.00 0.00 29 1000.4
20260504231626 22 239 0.0 6.4 0.00 0.00 0.00 28 1000.2
20260504231126 22 64 1.6 11.3 0.00 0.00 0.00 29 1000.2
20260504230618 21 334 1.6 11.3 0.00 0.00 0.00 31 1000.3
20260504225502 21 268 1.6 40.2 0.00 0.00 0.00 32 1000.3
20260504225008 21 199 3.2 40.2 0.00 0.00 0.00 33 1000.3
20260504224506 21 168 6.4 40.2 0.00 0.00 0.00 33 1000.2
20260504224015 21 104 6.4 40.2 0.00 0.00 0.00 32 1000.3
20260504223513 22 178 3.2 40.2 0.00 0.00 0.00 28 1000.2
20260504223020 22 215 1.6 9.7 0.00 0.00 0.00 25 1000.2
20260504221847 21 262 3.2 12.9 0.00 0.00 0.00 27 1000.1
20260504221342 21 258 4.8 12.9 0.00 0.00 0.00 27 1000.0
20260504220824 21 270 4.8 19.3 0.00 0.00 0.00 27 1000.0
20260504220305 21 249 6.4 19.3 0.00 0.00 0.00 27 1000.0
20260504215814 21 270 8.0 19.3 0.00 0.00 0.00 28 1000.0
20260504215307 21 257 8.0 16.1 0.00 0.00 0.00 27 1000.0
20260504214139 22 252 1.6 12.9 0.00 0.00 0.00 25 1000.1
20260504213621 22 262 0.0 11.3 0.00 0.00 0.00 26 1000.1
20260504213112 22 286 1.6 11.3 0.00 0.00 0.00 28 1000.1
20260504212601 22 303 1.6 11.3 0.00 0.00 0.00 28 1000.1
20260504212043 22 0 1.6 9.7 0.00 0.00 0.00 27 1000.2
20260504211527 23 310 1.6 9.7 0.00 0.00 0.00 26 1000.2
20260504211038 23 304 0.0 4.8 0.00 0.00 0.00 27 1000.3
20260504205250 22 164 0.0 9.7 0.00 0.00 0.00 28 1000.5
20260504204731 22 286 1.6 9.7 0.00 0.00 0.00 28 1000.5
20260504203542 22 320 1.6 9.7 0.00 0.00 0.00 27 1000.6
20260504203041 22 325 1.6 8.0 0.00 0.00 0.00 26 1000.6
20260504201910 22 343 3.2 14.5 0.00 0.00 0.00 27 1000.6
20260504201358 22 4 4.8 12.9 0.00 0.00 0.00 28 1000.7
20260504200854 22 285 3.2 12.9 0.00 0.00 0.00 26 1000.7
20260504195727 23 340 3.2 12.9 0.00 0.00 0.00 27 1000.9
20260504195210 23 337 3.2 11.3 0.00 0.00 0.00 27 1000.8
20260504194704 23 329 4.8 12.9 0.00 0.00 0.00 28 1000.8
20260504193525 23 328 4.8 17.7 0.00 0.00 0.00 27 1001.0
20260504193028 23 47 3.2 17.7 0.00 0.00 0.00 27 1001.1
20260504191856 23 318 3.2 17.7 0.00 0.00 0.00 28 1001.2
20260504191349 23 308 3.2 17.7 0.00 0.00 0.00 28 1001.2
20260504190839 24 230 0.0 8.0 0.00 0.00 0.00 27 1001.3
20260504185711 23 273 0.0 6.4 0.00 0.00 0.00 27 1001.4
20260504185218 22 265 0.0 6.4 0.00 0.00 0.00 27 1001.5
20260504184659 22 291 0.0 1.6 0.00 0.00 0.00 26 1001.6
20260504184153 22 321 0.0 1.6 0.00 0.00 0.00 26 1001.7
20260504183007 23 77 0.0 6.4 0.00 0.00 0.00 26 1001.7
20260504182453 23 284 1.6 0.0 0.00 0.00 0.00 26 1001.7
20260504181307 23 182 0.0 8.0 0.00 0.00 0.00 27 1001.9
20260504180812 23 328 1.6 9.7 0.00 0.00 0.00 28 1001.9
20260504180312 23 326 1.6 9.7 0.00 0.00 0.00 26 1002.0
20260504175812 22 263 1.6 9.7 0.00 0.00 0.00 28 1002.1
20260504175300 22 254 3.2 9.7 0.00 0.00 0.00 27 1002.2
20260504174809 22 293 1.6 11.3 0.00 0.00 0.00 28 1002.1
20260504174310 22 113 1.6 12.9 0.00 0.00 0.00 28 1002.2
20260504173810 22 306 3.2 12.9 0.00 0.00 0.00 27 1002.4
20260504173306 22 266 6.4 14.5 0.00 0.00 0.00 27 1002.4
20260504172749 22 179 6.4 14.5 0.00 0.00 0.00 29 1002.4
20260504171028 22 172 6.4 22.5 0.00 0.00 0.00 31 1002.5
20260504170511 22 157 6.4 22.5 0.00 0.00 0.00 29 1002.6
20260504150225 18 261 6.4 19.3 0.00 0.00 0.00 37 1003.3
20260504141245 17 263 4.8 17.7 0.00 0.00 0.00 40 1003.4
20260504140727 17 156 3.2 16.1 0.00 0.00 0.00 42 1003.5
20260504140222 16 270 4.8 16.1 0.00 0.00 0.00 43 1003.5
20260504130523 15 259 3.2 11.3 0.00 0.00 0.00 46 1003.7
20260504110431 15 255 0.0 6.4 0.00 0.00 0.00 40 1003.9